AVA310 MSLP-KMIA

Flight info

Callsign AVA310
Flight time 2h 13m
Altitude 35000
Route ATUMA3D ATUMA UH225 SAP UG521 CZM UG765 MAXIM SNDBR3
Aircraft A320/M-SDE3FGHIRWY/LB1

Departure

Time 2026-04-25 19:41
Airport El Salvador International Airport Saint Óscar Arnulfo Romero y Galdámez (MSLP)

Arrival

Time 2026-04-25 21:54
Airport Miami International Airport (KMIA)
Time Latitude Longitude Altitude Speed Heading
2026-04-25 19:17 13.44503 -89.05430 124 ft 0 kts 339°
2026-04-25 19:30 13.44491 -89.05425 96 ft 3 kts 341°
2026-04-25 19:30 13.44472 -89.05419 95 ft 3 kts 341°
2026-04-25 19:30 13.44453 -89.05413 96 ft 3 kts 355°
2026-04-25 19:31 13.44435 -89.05414 96 ft 3 kts 31°
2026-04-25 19:31 13.44423 -89.05426 96 ft 2 kts 69°
2026-04-25 19:31 13.44419 -89.05437 95 ft 2 kts 73°
2026-04-25 19:31 13.44413 -89.05457 94 ft 2 kts 73°
2026-04-25 19:32 13.44411 -89.05463 95 ft 0 kts 73°
2026-04-25 19:35 13.44414 -89.05413 96 ft 9 kts 107°
2026-04-25 19:35 13.44371 -89.05389 97 ft 8 kts 183°
2026-04-25 19:36 13.44332 -89.05436 95 ft 10 kts 249°
2026-04-25 19:36 13.44305 -89.05510 94 ft 12 kts 249°
2026-04-25 19:36 13.44274 -89.05598 93 ft 14 kts 250°
2026-04-25 19:36 13.44238 -89.05697 93 ft 16 kts 250°
2026-04-25 19:37 13.44213 -89.05769 94 ft 16 kts 250°
2026-04-25 19:37 13.44172 -89.05883 90 ft 18 kts 250°
2026-04-25 19:37 13.44128 -89.06005 89 ft 19 kts 250°
2026-04-25 19:37 13.44082 -89.06134 90 ft 20 kts 250°
2026-04-25 19:38 13.44038 -89.06257 88 ft 17 kts 250°
2026-04-25 19:38 13.43999 -89.06367 145 ft 17 kts 250°
2026-04-25 19:38 13.43956 -89.06488 143 ft 19 kts 250°
2026-04-25 19:38 13.43910 -89.06618 145 ft 20 kts 250°
2026-04-25 19:39 13.43861 -89.06756 139 ft 21 kts 250°
2026-04-25 19:39 13.43810 -89.06899 140 ft 21 kts 250°
2026-04-25 19:39 13.43724 -89.06999 132 ft 20 kts 169°
2026-04-25 19:39 13.43624 -89.06962 133 ft 9 kts 155°
2026-04-25 19:40 13.43614 -89.06913 133 ft 8 kts 70°
2026-04-25 19:40 13.43688 -89.06707 138 ft 67 kts 70°
2026-04-25 19:40 13.43927 -89.06042 91 ft 129 kts 70°
2026-04-25 19:40 13.44301 -89.05001 107 ft 178 kts 70°
2026-04-25 19:41 13.44624 -89.03789 728 ft 174 kts 93°
2026-04-25 19:41 13.44531 -89.02560 1372 ft 175 kts 98°
2026-04-25 19:41 13.44422 -89.01248 1801 ft 195 kts 96°
2026-04-25 19:41 13.44353 -89.00288 2054 ft 210 kts 95°
2026-04-25 19:42 13.44217 -88.98123 2545 ft 243 kts 93°
2026-04-25 19:42 13.44120 -88.96304 2905 ft 266 kts 93°
2026-04-25 19:42 13.44027 -88.94355 3492 ft 277 kts 93°
2026-04-25 19:42 13.43938 -88.92360 4232 ft 281 kts 92°
2026-04-25 19:43 13.43853 -88.90345 5034 ft 283 kts 91°
2026-04-25 19:43 13.43769 -88.88321 5827 ft 284 kts 91°
2026-04-25 19:43 13.43690 -88.86279 6562 ft 286 kts 89°
2026-04-25 19:43 13.44048 -88.84284 7223 ft 286 kts 65°
2026-04-25 19:44 13.45204 -88.82674 7909 ft 286 kts 38°
2026-04-25 19:44 13.46959 -88.81732 8614 ft 287 kts 14°
2026-04-25 19:44 13.48919 -88.81302 9321 ft 289 kts
2026-04-25 19:44 13.50909 -88.80958 10083 ft 289 kts 10°
2026-04-25 19:45 13.52883 -88.80337 10321 ft 308 kts 23°
2026-04-25 19:45 13.54903 -88.79431 10633 ft 322 kts 23°
2026-04-25 19:45 13.56972 -88.78487 11216 ft 326 kts 24°
2026-04-25 19:45 13.59056 -88.77529 11785 ft 331 kts 23°
2026-04-25 19:46 13.61174 -88.76554 12386 ft 334 kts 23°
2026-04-25 19:46 13.63308 -88.75577 12974 ft 338 kts 23°
2026-04-25 19:46 13.65470 -88.74593 13565 ft 341 kts 22°
2026-04-25 19:46 13.67647 -88.73604 14094 ft 344 kts 22°
2026-04-25 19:47 13.69820 -88.72615 14573 ft 347 kts 22°
2026-04-25 19:47 13.72067 -88.71593 15090 ft 350 kts 23°
2026-04-25 19:47 13.74276 -88.70586 15565 ft 353 kts 22°
2026-04-25 19:47 13.76525 -88.69565 16081 ft 355 kts 23°
2026-04-25 19:48 13.78804 -88.68534 16550 ft 358 kts 22°
2026-04-25 19:48 13.81091 -88.67497 17043 ft 361 kts 23°
2026-04-25 19:48 13.83404 -88.66445 17502 ft 364 kts 23°
2026-04-25 19:48 13.85743 -88.65379 17981 ft 367 kts 23°
2026-04-25 19:49 13.88080 -88.64316 18390 ft 371 kts 23°
2026-04-25 19:49 13.89645 -88.63604 18662 ft 373 kts 23°
2026-04-25 19:49 13.92837 -88.62149 19217 ft 376 kts 22°
2026-04-25 19:49 13.95241 -88.61054 19612 ft 379 kts 23°
2026-04-25 19:50 14.00092 -88.58841 20425 ft 384 kts 23°
2026-04-25 19:50 14.02512 -88.57740 20816 ft 386 kts 23°
2026-04-25 19:50 14.04981 -88.56616 21186 ft 389 kts 22°
2026-04-25 19:51 14.07469 -88.55484 21599 ft 392 kts 22°
2026-04-25 19:51 14.09970 -88.54344 21971 ft 395 kts 22°
2026-04-25 19:51 14.12487 -88.53196 22348 ft 397 kts 22°
2026-04-25 19:51 14.15022 -88.52037 22713 ft 400 kts 22°
2026-04-25 19:52 14.17573 -88.50873 23080 ft 402 kts 23°
2026-04-25 19:52 14.20142 -88.49701 23438 ft 405 kts 22°
2026-04-25 19:52 14.22724 -88.48523 23788 ft 407 kts 22°
2026-04-25 19:52 14.25322 -88.47338 24093 ft 409 kts 22°
2026-04-25 19:53 14.27929 -88.46146 24403 ft 411 kts 22°
2026-04-25 19:53 14.30549 -88.44947 24713 ft 413 kts 22°
2026-04-25 19:53 14.33188 -88.43739 25020 ft 415 kts 22°
2026-04-25 19:53 14.35830 -88.42532 25314 ft 417 kts 22°
2026-04-25 19:54 14.38486 -88.41319 25609 ft 418 kts 22°
2026-04-25 19:54 14.41157 -88.40097 25905 ft 420 kts 22°
2026-04-25 19:54 14.43836 -88.38866 26204 ft 422 kts 22°
2026-04-25 19:54 14.45614 -88.38049 26403 ft 424 kts 22°
2026-04-25 19:55 14.49187 -88.36408 26787 ft 426 kts 22°
2026-04-25 19:55 14.51901 -88.35164 27033 ft 428 kts 22°
2026-04-25 19:55 14.54627 -88.33917 27291 ft 430 kts 22°
2026-04-25 19:55 14.57367 -88.32668 27577 ft 431 kts 22°
2026-04-25 19:56 14.60122 -88.31413 27836 ft 433 kts 22°
2026-04-25 19:56 14.62891 -88.30149 28104 ft 435 kts 22°
2026-04-25 19:56 14.65665 -88.28880 28333 ft 437 kts 22°
2026-04-25 19:56 14.68452 -88.27600 28623 ft 438 kts 22°
2026-04-25 19:57 14.71244 -88.26317 28863 ft 440 kts 22°
2026-04-25 19:57 14.74054 -88.25027 29138 ft 442 kts 22°
2026-04-25 19:57 14.76874 -88.23733 29405 ft 444 kts 22°
2026-04-25 19:57 14.79706 -88.22434 29668 ft 446 kts 22°
2026-04-25 19:58 14.82549 -88.21130 29943 ft 448 kts 22°
2026-04-25 19:58 14.85367 -88.19835 30166 ft 450 kts 22°
2026-04-25 19:58 14.88234 -88.18518 30371 ft 452 kts 22°
2026-04-25 19:58 14.91108 -88.17196 30582 ft 453 kts 22°
2026-04-25 19:59 14.93999 -88.15864 30729 ft 455 kts 22°
2026-04-25 19:59 14.96901 -88.14526 30924 ft 457 kts 22°
2026-04-25 19:59 14.99812 -88.13185 31119 ft 459 kts 22°
2026-04-25 19:59 15.02736 -88.11840 31328 ft 460 kts 22°
2026-04-25 20:00 15.05667 -88.10491 31532 ft 462 kts 22°
2026-04-25 20:00 15.11564 -88.07778 31883 ft 465 kts 22°
2026-04-25 20:00 15.14521 -88.06419 32154 ft 465 kts 22°
2026-04-25 20:01 15.20429 -88.03696 32681 ft 464 kts 22°
2026-04-25 20:01 15.23372 -88.02336 32898 ft 464 kts 22°
2026-04-25 20:01 15.26320 -88.00973 33144 ft 464 kts 22°
2026-04-25 20:02 15.29264 -87.99613 33415 ft 463 kts 21°
2026-04-25 20:02 15.32201 -87.98254 33728 ft 461 kts 22°
2026-04-25 20:02 15.35133 -87.96897 33986 ft 461 kts 22°
2026-04-25 20:02 15.38064 -87.95543 34221 ft 460 kts 21°
2026-04-25 20:03 15.40988 -87.94194 34437 ft 460 kts 22°
2026-04-25 20:03 15.43913 -87.92844 34636 ft 460 kts 22°
2026-04-25 20:03 15.46901 -87.91674 34757 ft 457 kts 13°
2026-04-25 20:03 15.49959 -87.90983 34810 ft 444 kts
2026-04-25 20:04 15.55976 -87.89838 34807 ft 437 kts
2026-04-25 20:04 15.61907 -87.88710 34809 ft 436 kts
2026-04-25 20:05 15.67882 -87.87562 34817 ft 437 kts
2026-04-25 20:05 15.73875 -87.86394 34816 ft 438 kts
2026-04-25 20:06 15.79865 -87.85219 34813 ft 437 kts
2026-04-25 20:06 15.85863 -87.84053 34815 ft 438 kts
2026-04-25 20:07 15.91820 -87.82896 34818 ft 438 kts
2026-04-25 20:07 15.97821 -87.81730 34818 ft 438 kts
2026-04-25 20:08 16.03816 -87.80567 34828 ft 438 kts
2026-04-25 20:08 16.09812 -87.79399 34823 ft 438 kts
2026-04-25 20:09 16.15759 -87.78238 34818 ft 438 kts
2026-04-25 20:09 16.21769 -87.77073 34817 ft 438 kts
2026-04-25 20:10 16.27764 -87.75910 34816 ft 438 kts
2026-04-25 20:10 16.33760 -87.74738 34833 ft 438 kts
2026-04-25 20:11 16.39761 -87.73566 34824 ft 439 kts
2026-04-25 20:11 16.45720 -87.72400 34821 ft 439 kts
2026-04-25 20:12 16.51727 -87.71227 34821 ft 439 kts
2026-04-25 20:12 16.55741 -87.70442 34830 ft 439 kts
2026-04-25 20:13 16.63737 -87.68865 34830 ft 438 kts
2026-04-25 20:13 16.69738 -87.67686 34841 ft 438 kts
2026-04-25 20:14 16.75700 -87.66516 34840 ft 438 kts
2026-04-25 20:14 16.81696 -87.65347 34838 ft 438 kts
2026-04-25 20:15 16.87696 -87.64170 34840 ft 438 kts
2026-04-25 20:15 16.93697 -87.62983 34840 ft 438 kts
2026-04-25 20:16 16.99692 -87.61804 34836 ft 438 kts
2026-04-25 20:16 17.05688 -87.60624 34855 ft 438 kts
2026-04-25 20:17 17.11632 -87.59473 34855 ft 437 kts
2026-04-25 20:17 17.17611 -87.58330 34860 ft 436 kts
2026-04-25 20:18 17.23579 -87.57184 34859 ft 436 kts
2026-04-25 20:18 17.29559 -87.56032 34858 ft 436 kts
2026-04-25 20:19 17.35489 -87.54891 34860 ft 436 kts
2026-04-25 20:19 17.41462 -87.53744 34866 ft 436 kts
2026-04-25 20:20 17.47438 -87.52593 34861 ft 436 kts
2026-04-25 20:20 17.53411 -87.51442 34859 ft 436 kts
2026-04-25 20:21 17.59387 -87.50286 34862 ft 436 kts
2026-04-25 20:21 17.65332 -87.49132 34859 ft 436 kts
2026-04-25 20:22 17.69322 -87.48357 34857 ft 436 kts
2026-04-25 20:22 17.77229 -87.46831 34864 ft 435 kts
2026-04-25 20:23 17.83185 -87.45683 34862 ft 435 kts
2026-04-25 20:23 17.89146 -87.44526 34861 ft 435 kts
2026-04-25 20:24 17.95113 -87.43366 34856 ft 435 kts
2026-04-25 20:24 18.00069 -87.42403 34856 ft 435 kts
2026-04-25 20:25 18.07008 -87.41062 34863 ft 435 kts
2026-04-25 20:25 18.12005 -87.40099 34862 ft 435 kts
2026-04-25 20:26 18.17961 -87.38955 34860 ft 435 kts
2026-04-25 20:26 18.23878 -87.37811 34859 ft 435 kts
2026-04-25 20:27 18.29828 -87.36647 34858 ft 435 kts
2026-04-25 20:27 18.35785 -87.35482 34856 ft 434 kts
2026-04-25 20:28 18.41735 -87.34329 34869 ft 434 kts
2026-04-25 20:28 18.47680 -87.33165 34866 ft 434 kts
2026-04-25 20:29 18.53619 -87.32007 34866 ft 434 kts
2026-04-25 20:29 18.59533 -87.30854 34866 ft 434 kts
2026-04-25 20:30 18.65472 -87.29688 34863 ft 434 kts
2026-04-25 20:30 18.71407 -87.28461 34867 ft 434 kts
2026-04-25 20:31 18.77335 -87.27209 34877 ft 434 kts
2026-04-25 20:31 18.83266 -87.25974 34883 ft 434 kts
2026-04-25 20:32 18.89162 -87.24753 34885 ft 434 kts
2026-04-25 20:32 18.95088 -87.23529 34883 ft 433 kts
2026-04-25 20:33 19.01009 -87.22303 34884 ft 433 kts
2026-04-25 20:33 19.05930 -87.21280 34883 ft 434 kts
2026-04-25 20:34 19.12868 -87.19831 34898 ft 433 kts
2026-04-25 20:34 19.18742 -87.18607 34896 ft 433 kts
2026-04-25 20:35 19.24649 -87.17378 34890 ft 432 kts
2026-04-25 20:35 19.30565 -87.16149 34885 ft 432 kts
2026-04-25 20:36 19.36459 -87.14922 34882 ft 432 kts
2026-04-25 20:36 19.42324 -87.13694 34883 ft 431 kts
2026-04-25 20:37 19.48208 -87.12464 34894 ft 431 kts
2026-04-25 20:37 19.54088 -87.11235 34892 ft 430 kts
2026-04-25 20:38 19.59969 -87.10011 34883 ft 430 kts
2026-04-25 20:38 19.65841 -87.08785 34884 ft 430 kts
2026-04-25 20:39 19.71667 -87.07559 34881 ft 430 kts
2026-04-25 20:39 19.76578 -87.06522 34879 ft 430 kts
2026-04-25 20:40 19.83400 -87.05090 34895 ft 429 kts
2026-04-25 20:40 19.89260 -87.03868 34892 ft 429 kts
2026-04-25 20:41 19.95124 -87.02642 34890 ft 429 kts
2026-04-25 20:41 20.00990 -87.01404 34889 ft 429 kts
2026-04-25 20:42 20.06853 -87.00167 34894 ft 429 kts
2026-04-25 20:42 20.12715 -86.98938 34912 ft 429 kts
2026-04-25 20:43 20.18587 -86.97749 34902 ft 429 kts
2026-04-25 20:43 20.24419 -86.96579 34896 ft 429 kts
2026-04-25 20:44 20.30285 -86.95391 34894 ft 429 kts
2026-04-25 20:44 20.36146 -86.94192 34901 ft 429 kts
2026-04-25 20:45 20.42012 -86.93000 34913 ft 429 kts
2026-04-25 20:45 20.47850 -86.91600 34921 ft 437 kts 13°
2026-04-25 20:46 20.50634 -86.90206 34913 ft 447 kts 25°
2026-04-25 20:46 20.53163 -86.88217 34909 ft 456 kts 37°
2026-04-25 20:46 20.57527 -86.83222 34893 ft 461 kts 42°
2026-04-25 20:47 20.61831 -86.78136 34886 ft 462 kts 42°
2026-04-25 20:47 20.66138 -86.73048 34879 ft 462 kts 42°
2026-04-25 20:48 20.70449 -86.67954 34879 ft 463 kts 42°
2026-04-25 20:48 20.74761 -86.62847 34876 ft 463 kts 42°
2026-04-25 20:49 20.79044 -86.57765 34891 ft 463 kts 41°
2026-04-25 20:49 20.83361 -86.52661 34886 ft 463 kts 41°
2026-04-25 20:50 20.87686 -86.47542 34880 ft 464 kts 41°
2026-04-25 20:50 20.92010 -86.42395 34883 ft 465 kts 41°
2026-04-25 20:51 20.96324 -86.37249 34874 ft 465 kts 41°
2026-04-25 20:51 21.00642 -86.32103 34872 ft 465 kts 41°
2026-04-25 20:52 21.04238 -86.27822 34877 ft 466 kts 41°
2026-04-25 20:52 21.09374 -86.21694 34887 ft 480 kts 42°
2026-04-25 20:53 21.13878 -86.16320 34887 ft 489 kts 41°
2026-04-25 20:53 21.18433 -86.10875 34887 ft 491 kts 41°
2026-04-25 20:54 21.22961 -86.05442 34887 ft 492 kts 42°
2026-04-25 20:54 21.27520 -85.99972 34887 ft 492 kts 42°
2026-04-25 20:55 21.36146 -85.89622 34893 ft 492 kts 42°
2026-04-25 20:55 21.45268 -85.78643 34896 ft 492 kts 42°
2026-04-25 20:56 21.54295 -85.67562 34896 ft 494 kts 44°
2026-04-25 20:56 21.62976 -85.56289 34901 ft 494 kts 44°
2026-04-25 20:57 21.67384 -85.50611 34902 ft 494 kts 44°
2026-04-25 20:57 21.71809 -85.44951 34903 ft 494 kts 44°
2026-04-25 20:58 21.76237 -85.39290 34927 ft 494 kts 43°
2026-04-25 20:58 21.80644 -85.33624 34920 ft 493 kts 44°
2026-04-25 20:59 21.85032 -85.27951 34915 ft 493 kts 44°
2026-04-25 20:59 21.89399 -85.22323 34915 ft 493 kts 43°
2026-04-25 21:00 21.92346 -85.18530 34914 ft 493 kts 43°
2026-04-25 21:01 22.00388 -85.08152 34911 ft 492 kts 43°
2026-04-25 21:01 22.04810 -85.02520 34909 ft 492 kts 43°
2026-04-25 21:02 22.09250 -84.96900 34926 ft 492 kts 42°
2026-04-25 21:02 22.13671 -84.91271 34919 ft 492 kts 43°
2026-04-25 21:03 22.18073 -84.85625 34914 ft 492 kts 43°
2026-04-25 21:03 22.22485 -84.79981 34909 ft 492 kts 43°
2026-04-25 21:04 22.26892 -84.74338 34911 ft 492 kts 43°
2026-04-25 21:04 22.31300 -84.68690 34911 ft 492 kts 43°
2026-04-25 21:05 22.35706 -84.63035 34901 ft 492 kts 43°
2026-04-25 21:05 22.40084 -84.57405 34930 ft 492 kts 43°
2026-04-25 21:06 22.44484 -84.51740 34922 ft 491 kts 42°
2026-04-25 21:06 22.48885 -84.46085 34914 ft 491 kts 42°
2026-04-25 21:07 22.53274 -84.40424 34916 ft 491 kts 43°
2026-04-25 21:07 22.57660 -84.34752 34913 ft 491 kts 43°
2026-04-25 21:08 22.62046 -84.29086 34913 ft 491 kts 43°
2026-04-25 21:08 22.66431 -84.23419 34902 ft 491 kts 43°
2026-04-25 21:09 22.73020 -84.14911 34929 ft 491 kts 42°
2026-04-25 21:09 22.77395 -84.09290 34925 ft 490 kts 42°
2026-04-25 21:10 22.81843 -84.03682 34916 ft 490 kts 41°
2026-04-25 21:10 22.86299 -83.98089 34914 ft 490 kts 41°
2026-04-25 21:11 22.89990 -83.93432 34916 ft 490 kts 42°
2026-04-25 21:11 22.94422 -83.87812 34905 ft 490 kts 42°
2026-04-25 21:12 22.99573 -83.81255 34941 ft 491 kts 42°
2026-04-25 21:12 23.02538 -83.77477 34933 ft 491 kts 42°
2026-04-25 21:13 23.07719 -83.70875 34927 ft 491 kts 42°
2026-04-25 21:13 23.12127 -83.65275 34919 ft 491 kts 42°
2026-04-25 21:14 23.16564 -83.59632 34918 ft 491 kts 42°
2026-04-25 21:14 23.20987 -83.53976 34919 ft 491 kts 42°
2026-04-25 21:15 23.25413 -83.48305 34908 ft 492 kts 42°
2026-04-25 21:15 23.29848 -83.42617 34939 ft 493 kts 42°
2026-04-25 21:16 23.34283 -83.36934 34929 ft 492 kts 42°
2026-04-25 21:16 23.38718 -83.31260 34935 ft 492 kts 42°
2026-04-25 21:17 23.43140 -83.25578 34923 ft 492 kts 43°
2026-04-25 21:17 23.47562 -83.19876 34923 ft 492 kts 42°
2026-04-25 21:18 23.51955 -83.14226 34933 ft 492 kts 43°
2026-04-25 21:18 23.56372 -83.08527 34911 ft 492 kts 43°
2026-04-25 21:19 23.60794 -83.02815 34942 ft 492 kts 43°
2026-04-25 21:19 23.65207 -82.97111 34937 ft 491 kts 43°
2026-04-25 21:20 23.68867 -82.92384 34940 ft 491 kts 43°
2026-04-25 21:20 23.74004 -82.85733 34938 ft 490 kts 43°
2026-04-25 21:21 23.78384 -82.80038 34936 ft 490 kts 43°
2026-04-25 21:21 23.82769 -82.74343 34938 ft 489 kts 43°
2026-04-25 21:22 23.87156 -82.68650 34927 ft 490 kts 43°
2026-04-25 21:22 23.91537 -82.62943 34951 ft 489 kts 44°
2026-04-25 21:23 23.95900 -82.57242 34949 ft 487 kts 44°
2026-04-25 21:23 24.00223 -82.51613 34945 ft 486 kts 43°
2026-04-25 21:24 24.04761 -82.46157 34939 ft 482 kts 39°
2026-04-25 21:24 24.09435 -82.40915 34616 ft 479 kts 39°
2026-04-25 21:25 24.11745 -82.38324 34385 ft 475 kts 39°
2026-04-25 21:25 24.14037 -82.35719 34157 ft 473 kts 39°
2026-04-25 21:25 24.16217 -82.32997 33923 ft 478 kts 48°
2026-04-25 21:25 24.17942 -82.29861 33661 ft 484 kts 59°
2026-04-25 21:26 24.19363 -82.26566 33431 ft 483 kts 59°
2026-04-25 21:26 24.20788 -82.23263 33167 ft 477 kts 59°
2026-04-25 21:26 24.22208 -82.19990 32908 ft 474 kts 59°
2026-04-25 21:26 24.23625 -82.16746 32648 ft 471 kts 59°
2026-04-25 21:27 24.25041 -82.13517 32393 ft 468 kts 59°
2026-04-25 21:27 24.26447 -82.10309 32141 ft 466 kts 59°
2026-04-25 21:27 24.27845 -82.07120 31889 ft 463 kts 59°
2026-04-25 21:27 24.29239 -82.03932 31656 ft 462 kts 60°
2026-04-25 21:28 24.30616 -82.00764 31416 ft 459 kts 60°
2026-04-25 21:28 24.31983 -81.97612 31174 ft 456 kts 60°
2026-04-25 21:28 24.33345 -81.94473 30934 ft 454 kts 60°
2026-04-25 21:28 24.34703 -81.91350 30701 ft 452 kts 60°
2026-04-25 21:29 24.36054 -81.88244 30462 ft 450 kts 60°
2026-04-25 21:29 24.37393 -81.85158 30225 ft 448 kts 60°
2026-04-25 21:29 24.38711 -81.82120 29995 ft 446 kts 60°
2026-04-25 21:29 24.40039 -81.79054 29736 ft 444 kts 60°
2026-04-25 21:30 24.41359 -81.76005 29452 ft 441 kts 60°
2026-04-25 21:30 24.42672 -81.72966 29177 ft 440 kts 60°
2026-04-25 21:30 24.43979 -81.69936 28914 ft 438 kts 60°
2026-04-25 21:30 24.44873 -81.67962 28732 ft 434 kts 56°
2026-04-25 21:31 24.47091 -81.64320 28395 ft 425 kts 45°
2026-04-25 21:31 24.48974 -81.61840 28136 ft 423 kts 45°
2026-04-25 21:31 24.50854 -81.59359 27878 ft 421 kts 45°
2026-04-25 21:31 24.52720 -81.56887 27622 ft 419 kts 45°
2026-04-25 21:32 24.54574 -81.54428 27366 ft 417 kts 45°
2026-04-25 21:32 24.56419 -81.51980 27116 ft 415 kts 45°
2026-04-25 21:32 24.58255 -81.49535 26871 ft 414 kts 45°
2026-04-25 21:32 24.60086 -81.47095 26625 ft 412 kts 45°
2026-04-25 21:33 24.61908 -81.44664 26377 ft 410 kts 45°
2026-04-25 21:33 24.63697 -81.42283 26143 ft 409 kts 45°
2026-04-25 21:33 24.65502 -81.39879 25900 ft 407 kts 45°
2026-04-25 21:33 24.67299 -81.37485 25657 ft 405 kts 45°
2026-04-25 21:34 24.69090 -81.35099 25421 ft 403 kts 45°
2026-04-25 21:34 24.70874 -81.32719 25187 ft 402 kts 45°
2026-04-25 21:34 24.72649 -81.30351 24949 ft 400 kts 45°
2026-04-25 21:34 24.74418 -81.27992 24729 ft 399 kts 45°
2026-04-25 21:35 24.76180 -81.25640 24523 ft 397 kts 46°
2026-04-25 21:35 24.77928 -81.23302 24294 ft 394 kts 46°
2026-04-25 21:35 24.79664 -81.20980 24065 ft 392 kts 46°
2026-04-25 21:35 24.81394 -81.18669 23847 ft 391 kts 46°
2026-04-25 21:36 24.83117 -81.16364 23625 ft 389 kts 46°
2026-04-25 21:36 24.84865 -81.14106 23335 ft 382 kts 41°
2026-04-25 21:36 24.86831 -81.12190 22885 ft 373 kts 31°
2026-04-25 21:36 24.89010 -81.10679 22410 ft 368 kts 22°
2026-04-25 21:37 24.91326 -81.09511 21932 ft 365 kts 19°
2026-04-25 21:37 24.92865 -81.08763 21630 ft 364 kts 19°
2026-04-25 21:37 24.95951 -81.07239 21009 ft 362 kts 20°
2026-04-25 21:37 24.98244 -81.06099 20545 ft 361 kts 20°
2026-04-25 21:38 25.00529 -81.04966 20086 ft 360 kts 20°
2026-04-25 21:38 25.02812 -81.03839 19626 ft 359 kts 20°
2026-04-25 21:38 25.05059 -81.02733 19228 ft 356 kts 20°
2026-04-25 21:38 25.07297 -81.01626 18730 ft 350 kts 20°
2026-04-25 21:39 25.09507 -81.00529 18271 ft 347 kts 20°
2026-04-25 21:39 25.11706 -80.99437 17782 ft 344 kts 20°
2026-04-25 21:39 25.13884 -80.98358 17340 ft 342 kts 20°
2026-04-25 21:39 25.16047 -80.97287 16960 ft 339 kts 20°
2026-04-25 21:40 25.18194 -80.96224 16535 ft 338 kts 20°
2026-04-25 21:40 25.20325 -80.95169 16103 ft 334 kts 20°
2026-04-25 21:40 25.22435 -80.94122 15677 ft 331 kts 20°
2026-04-25 21:40 25.24528 -80.93085 15257 ft 328 kts 20°
2026-04-25 21:41 25.26606 -80.92057 14831 ft 326 kts 20°
2026-04-25 21:41 25.28666 -80.91041 14421 ft 323 kts 20°
2026-04-25 21:41 25.30718 -80.90029 14012 ft 323 kts 20°
2026-04-25 21:41 25.32777 -80.89011 13574 ft 324 kts 21°
2026-04-25 21:42 25.34809 -80.88005 13141 ft 324 kts 21°
2026-04-25 21:42 25.36861 -80.86987 12728 ft 323 kts 21°
2026-04-25 21:42 25.38900 -80.85974 12312 ft 317 kts 21°
2026-04-25 21:42 25.40911 -80.85005 11910 ft 314 kts 20°
2026-04-25 21:43 25.42916 -80.84074 11547 ft 307 kts 20°
2026-04-25 21:43 25.44856 -80.83188 11121 ft 297 kts 19°
2026-04-25 21:43 25.46785 -80.82391 10886 ft 294 kts 17°
2026-04-25 21:43 25.48724 -80.81665 10650 ft 294 kts 16°
2026-04-25 21:44 25.50660 -80.80964 10417 ft 292 kts 16°
2026-04-25 21:44 25.52593 -80.80263 10086 ft 291 kts 16°
2026-04-25 21:44 25.56399 -80.78862 9352 ft 289 kts 17°
2026-04-25 21:45 25.58297 -80.78155 8996 ft 287 kts 16°
2026-04-25 21:45 25.59577 -80.77677 8759 ft 286 kts 16°
2026-04-25 21:45 25.62057 -80.76740 8289 ft 283 kts 17°
2026-04-25 21:45 25.63858 -80.75878 7939 ft 283 kts 30°
2026-04-25 21:46 25.65407 -80.74537 7580 ft 283 kts 44°
2026-04-25 21:46 25.66642 -80.72843 7238 ft 283 kts 51°
2026-04-25 21:46 25.67825 -80.71103 6887 ft 282 kts 52°
2026-04-25 21:46 25.69011 -80.69368 6537 ft 281 kts 52°
2026-04-25 21:47 25.70190 -80.67642 6178 ft 280 kts 52°
2026-04-25 21:47 25.71364 -80.65922 5819 ft 278 kts 52°
2026-04-25 21:47 25.72527 -80.64222 5472 ft 275 kts 53°
2026-04-25 21:47 25.73675 -80.62543 5136 ft 272 kts 53°
2026-04-25 21:48 25.74812 -80.60887 4796 ft 267 kts 53°
2026-04-25 21:48 25.75892 -80.59308 4475 ft 254 kts 54°
2026-04-25 21:48 25.76912 -80.57766 4163 ft 241 kts 61°
2026-04-25 21:48 25.77496 -80.56116 4006 ft 220 kts 82°
2026-04-25 21:49 25.77625 -80.54506 3940 ft 204 kts 88°
2026-04-25 21:49 25.77694 -80.52942 3740 ft 203 kts 88°
2026-04-25 21:49 25.77762 -80.51389 3491 ft 201 kts 89°
2026-04-25 21:49 25.77829 -80.49836 3244 ft 202 kts 90°
2026-04-25 21:50 25.77896 -80.48273 2984 ft 203 kts 89°
2026-04-25 21:50 25.77964 -80.46705 2712 ft 203 kts 89°
2026-04-25 21:50 25.78031 -80.45144 2443 ft 201 kts 89°
2026-04-25 21:50 25.78075 -80.44117 2283 ft 200 kts 89°
2026-04-25 21:51 25.78161 -80.42103 1940 ft 189 kts 90°
2026-04-25 21:51 25.78222 -80.40692 1700 ft 178 kts 89°
2026-04-25 21:51 25.78279 -80.39350 1456 ft 170 kts 91°
2026-04-25 21:51 25.78333 -80.38077 1260 ft 159 kts 91°
2026-04-25 21:52 25.78383 -80.36890 1032 ft 147 kts 91°
2026-04-25 21:52 25.78429 -80.35814 878 ft 133 kts 92°
2026-04-25 21:52 25.78471 -80.34809 709 ft 131 kts 90°
2026-04-25 21:52 25.78512 -80.33807 544 ft 130 kts 92°
2026-04-25 21:53 25.78554 -80.32793 365 ft 134 kts 91°
2026-04-25 21:53 25.78600 -80.31763 151 ft 133 kts 92°
2026-04-25 21:53 25.78643 -80.30748 19 ft 131 kts 90°
2026-04-25 21:53 25.78676 -80.29905 14 ft 85 kts 87°
2026-04-25 21:54 25.78694 -80.29443 14 ft 35 kts 86°
2026-04-25 21:54 25.78713 -80.29308 18 ft 13 kts 78°
2026-04-25 21:54 25.78744 -80.29218 15 ft 12 kts 53°
2026-04-25 21:54 25.78802 -80.29156 15 ft 11 kts 52°
2026-04-25 21:55 25.78823 -80.29035 15 ft 19 kts 84°
2026-04-25 21:55 25.78850 -80.28918 15 ft 15 kts 75°
2026-04-25 21:55 25.78866 -80.28799 14 ft 17 kts 87°
2026-04-25 21:55 25.78871 -80.28671 14 ft 14 kts 87°
2026-04-25 21:56 25.78876 -80.28558 15 ft 15 kts 87°
2026-04-25 21:56 25.78879 -80.28477 15 ft 16 kts 88°
2026-04-25 21:56 25.78887 -80.28298 15 ft 19 kts 87°
2026-04-25 21:56 25.78895 -80.28159 16 ft 16 kts 83°
2026-04-25 21:57 25.78905 -80.28065 17 ft 9 kts 83°
2026-04-25 21:57 25.78898 -80.28000 17 ft 9 kts 119°
2026-04-25 21:57 25.78869 -80.27932 16 ft 11 kts 97°
2026-04-25 21:57 25.78873 -80.27841 16 ft 13 kts 87°
2026-04-25 21:58 25.78878 -80.27733 15 ft 15 kts 88°
2026-04-25 21:58 25.78890 -80.27612 15 ft 14 kts 78°
2026-04-25 21:58 25.78909 -80.27518 15 ft 13 kts 71°
2026-04-25 21:58 25.78980 -80.27486 15 ft 11 kts 357°
2026-04-25 21:59 25.79053 -80.27490 15 ft 10 kts 357°
2026-04-25 21:59 25.79098 -80.27492 15 ft 9 kts 358°
2026-04-25 21:59 25.79149 -80.27495 15 ft 6 kts 356°
2026-04-25 22:00 25.79227 -80.27454 15 ft 3 kts 85°
2026-04-25 22:00 25.79227 -80.27437 15 ft 2 kts 87°
2026-04-25 22:00 25.79229 -80.27410 15 ft 2 kts 87°